Wind_Speed
19 19 19 19 20 21 21 22 22 22 22 23 23 24 24 25 27 28 28 29 30 31 33 34 34 34 34 34 35 34 34 34 35 35 35 37 37 37
19 19 19 19 19 20 21 22 22 22 21 22 23 24 24 25 25 26 27 28 29 30 31 31 32 33 33 33 33 34 34 34 34 34 34 34 36 37
18 18 19 19 19 20 21 21 22 22 21 21 22 23 24 24 24 25 26 26 26 27 28 29 30 31 32 32 32 33 34 35 35 35 35 35 36 37
18 18 18 19 19 20 20 21 21 21 21 20 21 22 23 24 25 25 25 25 25 26 27 27 29 30 31 32 33 34 34 35 36 36 37 37 37 39
18 18 18 19 19 19 20 20 21 21 21 21 21 22 23 24 24 25 24 25 25 26 27 28 29 30 31 32 33 34 35 35 36 37 37 38 38 39
18 18 18 19 19 19 20 20 20 20 21 21 21 21 22 23 23 23 23 24 25 26 27 28 28 29 31 32 34 35 35 36 37 37 38 38 39 40
17 17 18 18 19 19 19 20 20 21 22 21 21 21 21 22 22 23 23 24 26 27 27 28 29 29 31 32 33 35 36 37 38 39 39 39 39 40
17 17 17 18 19 20 20 21 22 21 22 22 22 22 22 22 21 21 22 24 25 26 27 28 29 30 31 32 33 35 36 37 38 39 40 40 39 39
17 18 18 19 20 21 21 22 22 22 22 22 22 22 22 22 22 21 22 22 23 25 26 26 27 29 31 32 33 34 35 36 37 37 38 39 39 39
18 19 20 21 21 22 22 23 23 23 22 22 23 23 24 24 24 23 23 22 23 24 25 26 27 28 29 31 31 33 34 35 36 37 38 38 38 39
17 18 20 21 21 22 22 22 23 23 23 23 24 24 24 24 24 24 24 23 23 24 24 24 25 26 27 28 29 31 33 34 34 34 35 36 36 37
18 19 19 20 21 21 22 22 22 23 23 23 24 24 25 25 24 24 24 24 23 24 24 23 24 24 25 26 28 30 31 32 33 34 34 35 36 36
18 19 19 20 21 21 21 21 22 22 22 23 23 24 24 24 24 24 24 24 23 23 24 25 25 25 25 26 26 28 29 29 30 32 33 34 35 35
19 19 19 20 21 21 21 21 22 22 23 23 23 23 23 23 23 24 24 24 24 24 24 25 24 24 24 24 25 26 27 28 29 30 32 32 34 34
18 18 19 20 20 21 21 21 22 23 23 23 23 23 23 23 23 23 23 23 23 23 23 24 23 22 22 22 22 23 25 26 28 29 30 31 31 33
17 18 19 20 20 21 21 21 22 23 23 23 23 23 22 23 22 22 22 22 22 22 23 22 22 21 21 21 21 22 23 25 26 27 27 28 29 31
18 19 20 21 21 20 20 21 22 24 24 24 24 23 23 23 22 22 22 22 22 21 22 22 21 20 19 19 20 20 21 23 24 25 26 26 27 28
18 19 20 20 20 21 22 22 23 24 24 24 24 23 22 22 22 22 22 21 21 21 20 21 21 20 19 19 20 20 20 21 22 23 24 24 24 26
18 19 20 20 21 22 23 23 24 24 24 24 23 22 22 21 21 21 21 20 20 20 20 21 21 20 20 20 20 20 21 21 21 22 22 23 22 23
18 19 19 20 21 22 22 23 24 24 24 23 23 22 21 21 21 20 20 20 20 21 21 20 21 21 21 21 20 20 20 20 21 21 21 21 21 22
18 19 20 21 21 22 23 24 24 24 23 22 22 21 20 20 21 21 21 21 21 22 22 22 21 20 20 20 20 20 19 19 19 20 19 20 20 20
19 20 21 21 22 23 23 24 24 23 23 22 21 21 21 21 21 21 21 22 22 22 23 22 22 21 20 20 19 19 19 19 20 20 19 19 19 20
20 21 22 23 23 24 24 24 23 23 23 22 22 22 22 22 22 22 22 23 23 23 23 22 21 21 20 19 18 19 19 19 19 19 19 19 19 19
Wind_Direction
286 286 287 287 289 289 289 288 287 286 285 281 278 277 274 271 271 270 269 268 268 267 264 260 258 258 256 254 253 252 251 250 250 250 250 248 246 247
286 287 289 291 293 293 292 292 291 290 288 284 281 280 276 275 275 273 272 272 270 268 265 262 259 257 255 254 253 250 250 250 249 250 251 250 249 248
291 291 292 295 296 297 296 294 293 292 290 287 284 283 280 277 275 273 272 273 272 269 267 264 262 258 256 254 253 252 250 249 249 250 252 251 251 250
292 292 293 295 298 299 297 297 296 293 292 290 288 286 282 280 277 276 274 273 271 269 267 265 263 260 258 256 254 254 252 250 250 251 252 252 252 250
292 292 293 296 299 300 299 299 298 295 293 292 290 288 286 283 281 278 275 273 271 269 267 266 264 261 258 256 256 254 253 252 252 253 254 253 251 251
298 297 296 296 298 301 301 301 300 297 297 294 292 292 290 288 283 278 276 274 272 271 269 267 266 262 258 256 256 256 255 254 253 253 255 254 253 252
300 299 298 296 298 300 303 304 302 301 299 298 295 293 292 291 288 283 280 278 275 275 272 268 266 263 260 259 258 257 257 256 255 255 255 255 254 253
301 300 298 297 299 301 302 302 302 302 300 298 296 293 294 295 293 289 285 281 278 277 275 272 269 266 263 261 260 258 258 258 257 256 255 255 254 253
303 302 301 301 301 301 300 301 303 303 301 299 299 298 298 298 296 294 290 286 284 282 280 277 274 271 266 263 262 260 260 259 258 257 256 255 254 254
303 303 304 304 303 303 302 304 304 304 302 300 300 299 299 298 296 294 292 290 289 289 286 282 278 276 271 266 262 260 259 258 259 258 257 256 255 253
305 306 307 307 306 306 306 307 307 307 306 304 303 303 302 300 297 294 294 293 292 292 290 287 284 280 274 269 264 260 257 257 256 256 257 256 255 254
308 309 310 310 310 310 310 311 312 311 309 306 305 305 303 301 298 295 296 295 294 293 291 290 289 282 277 273 268 263 259 258 258 257 257 256 254 253
308 309 311 312 313 313 314 314 313 312 311 310 308 307 304 301 299 296 296 296 296 296 294 291 289 283 277 274 270 266 262 260 259 259 259 258 256 253
310 311 313 314 315 315 315 315 314 313 313 312 311 310 307 304 299 296 295 296 295 296 294 292 291 288 280 274 271 268 265 263 262 261 261 259 257 255
309 311 313 314 316 318 317 316 316 316 316 315 313 312 311 309 305 301 299 298 297 297 297 295 293 291 285 280 277 274 271 267 265 264 264 262 258 254
311 315 316 317 318 318 317 317 318 318 319 317 314 312 311 310 310 307 303 300 298 298 298 298 296 294 289 283 279 277 276 273 270 268 266 263 259 255
310 313 315 316 316 317 317 317 318 317 317 315 314 312 311 311 311 310 308 306 303 301 300 298 297 294 290 286 282 279 277 277 276 273 269 264 261 259
311 314 315 317 317 318 318 318 319 319 318 318 318 317 316 315 313 311 310 309 306 303 302 301 300 298 293 288 286 283 279 277 276 275 272 268 264 261
312 315 317 318 319 320 320 319 321 322 322 322 322 321 319 317 316 315 314 312 310 307 306 304 301 299 296 292 289 287 284 280 278 276 275 271 268 264
316 317 320 322 322 322 323 323 324 324 324 323 323 323 323 321 319 317 316 314 313 312 311 308 305 301 297 294 291 290 289 285 281 280 277 273 268 266
316 318 319 320 321 322 323 323 324 325 325 323 323 324 323 321 320 319 317 315 314 314 312 311 308 303 300 298 294 292 289 286 281 280 279 274 270 269
317 318 318 319 320 321 322 323 324 324 325 325 324 323 323 322 320 320 319 317 315 314 314 311 308 303 302 299 294 290 288 285 280 279 278 277 274 272
318 318 319 320 321 321 321 322 323 323 323 323 323 322 321 321 320 319 319 318 316 315 315 311 308 305 302 298 296 293 289 287 280 275 273 274 274 272
Height
5755 5754 5753 5752 5751 5750 5748 5747 5746 5745 5744 5743 5743 5742 5742 5742 5741 5741 5741 5741 5741 5741 5742 5743 5744 5746 5748 5750 5753 5755 5758 5761 5764 5767 5770 5773 5776 5779
5750 5749 5748 5747 5745 5744 5742 5740 5739 5738 5737 5736 5735 5734 5734 5734 5733 5733 5733 5732 5732 5731 5732 5732 5734 5736 5738 5740 5742 5745 5748 5751 5754 5757 5759 5762 5765 5768
5745 5744 5743 5741 5740 5738 5736 5734 5733 5731 5730 5729 5728 5727 5726 5726 5725 5725 5724 5723 5723 5723 5723 5723 5724 5726 5728 5730 5733 5735 5738 5741 5743 5746 5749 5752 5755 5758
5740 5739 5737 5736 5734 5733 5731 5729 5727 5725 5724 5722 5721 5720 5719 5718 5717 5716 5715 5715 5715 5715 5715 5714 5715 5716 5718 5720 5723 5725 5727 5730 5733 5735 5738 5741 5744 5746
5736 5734 5733 5731 5729 5727 5725 5723 5721 5719 5718 5716 5715 5713 5712 5710 5709 5708 5707 5707 5706 5706 5706 5706 5706 5706 5708 5710 5712 5714 5716 5719 5722 5724 5727 5729 5732 5735
5731 5729 5728 5726 5724 5722 5720 5718 5716 5714 5712 5710 5708 5707 5705 5703 5701 5700 5700 5699 5698 5698 5697 5697 5697 5697 5698 5700 5702 5704 5705 5707 5709 5712 5715 5717 5720 5723
5726 5724 5723 5721 5719 5717 5715 5713 5710 5708 5706 5703 5702 5700 5698 5696 5694 5693 5692 5691 5690 5689 5688 5688 5688 5688 5689 5690 5691 5692 5694 5696 5698 5700 5703 5705 5708 5711
5722 5720 5718 5716 5714 5712 5710 5707 5705 5702 5700 5697 5695 5693 5691 5689 5687 5685 5684 5683 5682 5681 5679 5678 5678 5678 5678 5679 5680 5681 5683 5684 5686 5688 5690 5693 5696 5698
5718 5715 5713 5711 5709 5707 5704 5702 5699 5696 5694 5691 5689 5687 5684 5682 5681 5679 5676 5674 5673 5671 5669 5668 5667 5667 5667 5668 5669 5670 5671 5672 5674 5676 5678 5681 5683 5686
5714 5711 5709 5706 5704 5701 5699 5696 5693 5690 5687 5685 5683 5680 5678 5675 5673 5671 5669 5667 5665 5662 5660 5659 5658 5657 5656 5657 5658 5658 5659 5661 5662 5664 5666 5669 5672 5674
5709 5707 5704 5701 5699 5696 5693 5690 5687 5684 5681 5679 5676 5673 5671 5668 5666 5664 5662 5660 5657 5655 5652 5650 5649 5648 5647 5646 5647 5648 5649 5650 5652 5653 5655 5657 5660 5662
5704 5702 5699 5697 5694 5690 5687 5684 5681 5679 5675 5673 5670 5667 5664 5661 5659 5656 5654 5652 5650 5648 5645 5643 5641 5639 5639 5638 5637 5638 5639 5640 5641 5643 5645 5646 5648 5651
5700 5697 5695 5692 5688 5685 5682 5679 5676 5673 5670 5667 5663 5660 5657 5654 5652 5649 5647 5645 5643 5640 5638 5636 5634 5631 5630 5629 5629 5628 5629 5630 5631 5633 5634 5635 5637 5640
5695 5692 5690 5687 5684 5681 5677 5674 5670 5667 5664 5661 5657 5654 5651 5648 5645 5642 5640 5638 5635 5633 5630 5628 5626 5623 5622 5621 5620 5620 5620 5620 5621 5622 5624 5625 5627 5629
5690 5688 5685 5682 5679 5676 5672 5669 5666 5662 5658 5655 5652 5648 5645 5641 5638 5635 5633 5630 5628 5626 5623 5620 5618 5616 5614 5613 5612 5612 5612 5612 5612 5613 5614 5615 5617 5619
5686 5683 5680 5677 5674 5671 5668 5664 5661 5657 5653 5650 5646 5642 5639 5635 5632 5629 5626 5624 5621 5619 5616 5614 5611 5609 5607 5606 5605 5604 5604 5604 5604 5604 5605 5605 5607 5608
5682 5679 5676 5673 5670 5667 5663 5659 5656 5652 5648 5644 5640 5636 5632 5629 5626 5623 5620 5617 5615 5612 5610 5607 5605 5602 5600 5599 5598 5597 5596 5596 5596 5596 5596 5597 5598 5599
5678 5675 5672 5669 5665 5662 5658 5654 5651 5647 5642 5638 5634 5630 5626 5623 5620 5617 5614 5611 5608 5606 5603 5601 5598 5596 5595 5593 5592 5591 5590 5589 5589 5588 5588 5588 5589 5590
5673 5670 5667 5664 5661 5657 5653 5649 5645 5641 5637 5633 5629 5625 5621 5618 5614 5611 5608 5605 5602 5600 5597 5595 5592 5590 5588 5587 5586 5584 5583 5582 5581 5581 5580 5581 5582 5583
5669 5666 5663 5660 5656 5652 5648 5644 5640 5636 5632 5628 5624 5620 5616 5613 5610 5606 5603 5600 5597 5594 5592 5589 5586 5584 5582 5581 5580 5578 5577 5575 5575 5574 5574 5574 5574 5575
5665 5662 5659 5655 5651 5647 5643 5639 5635 5631 5627 5623 5619 5615 5612 5608 5605 5602 5598 5595 5592 5589 5586 5583 5581 5578 5576 5574 5573 5572 5570 5569 5568 5568 5568 5568 5568 5568
5661 5658 5654 5650 5647 5642 5638 5634 5630 5626 5622 5618 5614 5611 5607 5604 5600 5597 5593 5590 5587 5584 5580 5577 5574 5572 5569 5567 5566 5565 5564 5563 5562 5561 5561 5561 5561 5561
5657 5653 5649 5646 5642 5637 5633 5629 5625 5621 5617 5614 5610 5606 5603 5599 5595 5592 5588 5585 5581 5578 5574 5571 5568 5565 5563 5561 5559 5558 5557 5556 5555 5555 5554 5554 5554 5554